Wind_Speed
7 7 7 7 8 8 8 8 8 7 8 9 9 9 9 9 8 8 8 8 8 8 9 9 9 9 10 10 11 10 8 8 8 8 8 8 9 9 10 11 12 13 14
6 7 7 7 8 8 8 8 7 7 7 8 8 8 9 10 10 9 9 9 9 9 9 9 10 10 10 10 10 10 8 9 8 8 8 8 8 8 10 11 12 13 13
5 6 7 7 8 9 9 8 7 7 8 9 8 9 9 10 10 10 10 10 10 9 9 9 10 10 10 10 10 10 8 8 8 8 8 9 9 10 10 11 13 14 14
5 6 6 8 8 9 10 9 8 8 9 9 9 9 9 10 10 10 10 10 9 9 10 10 11 11 10 10 10 11 10 10 11 10 10 10 11 12 11 12 13 14 15
5 6 7 9 10 11 11 10 9 9 9 10 10 10 10 10 11 11 10 10 9 10 11 11 12 12 12 12 12 12 12 12 12 12 13 13 12 13 12 13 14 15 16
7 7 8 9 10 12 12 12 10 10 10 11 11 11 11 11 12 11 11 11 10 11 12 12 13 13 13 13 13 13 14 14 14 14 15 15 15 15 15 16 16 16 17
9 9 10 10 11 12 12 12 11 12 12 12 12 12 12 12 12 12 13 12 12 12 13 14 14 14 15 15 14 14 15 15 16 16 16 16 17 17 17 17 17 17 18
10 11 11 12 12 12 13 14 14 15 15 14 14 14 13 14 13 13 14 14 14 14 15 15 16 16 16 16 16 16 16 17 17 17 17 18 18 19 19 19 19 19 20
12 13 12 13 13 14 15 15 17 17 17 16 16 16 16 15 15 15 15 16 16 16 16 17 17 17 17 17 17 18 17 17 18 19 19 19 20 20 21 21 21 21 21
14 14 14 14 14 15 16 17 18 18 17 18 18 19 19 17 16 17 17 17 18 18 18 18 18 19 19 19 19 20 20 20 20 21 21 21 21 22 22 22 22 22 23
16 16 15 15 16 17 18 19 19 18 18 19 20 20 20 18 18 18 18 18 19 19 19 19 19 20 20 21 21 21 22 22 22 22 23 23 23 23 23 23 23 24 24
18 18 18 18 19 19 19 19 19 19 20 21 21 22 21 20 20 20 20 20 20 21 21 21 21 21 21 22 23 23 23 24 24 24 24 24 24 24 24 24 25 25 25
20 19 19 19 21 20 19 20 20 20 21 21 22 23 22 22 22 22 22 22 22 22 22 22 22 23 23 24 24 24 25 25 26 26 26 26 26 26 26 26 26 26 26
21 21 22 22 22 21 21 22 22 22 22 22 22 22 22 22 23 24 24 24 23 23 23 23 24 24 25 25 25 26 26 26 27 27 27 27 27 27 27 27 27 27 27
23 23 23 23 24 23 23 24 24 24 23 23 23 23 23 24 25 25 25 24 24 24 24 25 25 26 27 27 27 27 27 27 28 28 28 27 27 27 28 28 27 27 27
26 26 25 25 25 25 24 24 25 25 25 25 25 25 25 26 27 27 26 25 25 25 26 26 27 27 27 28 28 28 28 29 29 29 29 30 30 29 28 28 28 27 27
28 28 28 27 27 27 26 26 26 26 26 26 26 26 27 27 28 28 26 26 26 27 27 28 28 28 28 29 29 29 30 30 30 30 31 31 31 30 29 28 28 28 29
28 30 30 29 29 29 29 28 27 28 28 27 27 27 27 28 28 28 28 28 28 29 29 29 29 30 30 30 30 30 31 30 30 31 31 31 30 30 30 29 29 29 30
29 30 30 30 30 29 28 28 28 28 28 28 29 29 29 29 29 30 30 29 30 31 31 30 30 31 30 30 30 31 31 31 31 31 31 31 30 30 30 30 30 30 31
29 29 29 29 29 30 30 30 29 29 29 29 30 30 30 31 31 32 32 32 32 32 31 31 30 30 30 30 31 31 31 31 31 31 31 31 31 32 32 32 32 32 32
30 30 30 31 31 31 31 32 30 31 31 30 31 32 32 32 33 33 34 33 33 32 32 31 30 30 30 31 31 31 31 32 32 32 32 33 33 33 33 33 33 33 33
31 32 32 32 32 32 32 32 31 32 32 32 32 32 32 33 33 33 34 34 33 33 32 32 31 31 31 31 31 32 33 33 33 33 33 33 34 33 33 33 33 33 33
31 32 33 33 34 34 33 32 32 32 32 32 32 32 32 33 33 33 34 34 34 34 34 33 32 32 32 32 33 32 33 33 33 33 33 34 34 33 33 33 34 34 34
32 33 33 33 33 33 32 32 33 33 32 31 32 33 33 33 33 34 34 34 34 34 34 34 33 33 32 33 33 33 33 32 33 33 33 33 32 32 32 32 33 32 33
32 32 32 32 32 32 32 33 33 34 33 33 34 34 34 34 34 34 34 34 34 34 34 34 34 34 34 33 33 33 33 33 33 32 32 31 31 30 30 31 31 31 31
31 31 32 31 31 32 33 33 34 34 34 35 35 35 35 34 34 34 33 34 35 35 35 35 35 34 34 33 32 33 33 32 32 31 31 31 30 29 29 30 30 30 30
Wind_Direction
17 15 10 4 1 2 3 6 6 1 359 358 356 357 357 358 357 359 357 353 351 350 346 346 343 342 346 350 351 346 338 327 315 309 301 288 280 271 272 272 267 265 262
5 7 6 359 355 352 350 356 352 345 345 346 346 350 351 352 353 353 352 346 341 339 339 341 339 339 343 347 346 342 338 332 326 317 307 300 296 286 283 280 273 271 268
353 351 352 346 348 349 347 345 345 336 336 339 341 343 341 341 341 343 344 340 339 337 334 334 334 333 334 333 332 332 327 324 318 313 306 302 299 292 288 282 275 273 272
337 345 347 340 332 331 337 337 340 336 334 331 329 332 331 330 332 332 333 331 331 333 332 329 325 325 325 323 323 322 320 315 310 306 303 299 298 292 286 284 281 278 277
311 318 327 331 331 328 326 329 332 328 329 332 328 325 324 325 324 323 322 321 321 323 323 324 322 319 317 317 315 313 312 307 304 300 297 297 297 293 285 285 283 281 280
298 297 306 316 326 329 324 320 324 321 322 324 322 324 322 320 318 316 315 317 315 314 314 314 313 313 313 312 311 309 308 306 302 298 295 294 293 293 290 286 284 286 284
296 298 300 306 316 325 328 324 320 316 316 316 314 314 313 312 313 312 310 310 310 310 310 307 306 307 307 308 307 307 306 305 304 301 296 294 293 292 290 286 284 285 286
291 296 302 308 312 315 314 314 310 311 312 310 307 305 304 305 306 306 307 307 306 305 306 304 304 303 303 304 303 304 303 301 301 299 296 295 293 291 289 287 285 284 285
290 293 298 305 305 304 305 308 306 305 306 309 307 301 299 299 301 303 305 305 305 303 302 301 300 300 299 299 300 302 302 301 300 300 298 296 296 295 292 289 287 286 285
290 293 292 298 299 301 303 305 306 304 302 304 305 302 299 297 299 301 302 301 301 302 300 299 297 296 295 295 297 298 298 298 298 297 297 295 295 295 292 289 288 288 287
289 292 291 292 295 298 299 302 303 302 302 303 304 302 300 296 299 300 301 301 300 299 298 296 296 295 294 293 294 295 294 294 295 294 294 294 292 291 290 287 288 287 287
288 290 292 295 297 296 297 300 301 301 302 303 301 301 299 298 301 303 302 301 300 299 297 296 295 296 294 292 293 293 293 293 293 292 292 293 292 291 290 288 287 286 287
288 289 292 296 298 298 301 301 300 302 302 301 299 298 297 300 299 299 298 298 298 298 297 293 293 293 293 292 292 292 293 293 293 292 292 292 291 290 290 289 288 287 286
285 288 290 292 293 294 298 300 301 302 301 299 298 298 297 300 300 299 298 296 295 295 296 295 294 293 292 292 292 291 291 291 292 292 291 291 290 289 289 289 288 287 286
282 285 288 288 288 290 293 297 299 299 298 299 301 303 300 300 300 298 297 297 294 294 294 294 292 291 291 290 291 290 290 289 291 291 290 290 290 290 290 289 288 288 288
281 282 283 285 288 290 291 293 295 296 297 298 300 302 302 302 300 298 294 294 294 294 294 293 291 290 290 290 289 289 289 289 291 291 290 290 289 289 290 289 287 287 288
279 280 282 284 287 288 289 290 292 293 294 296 298 299 302 301 300 297 295 294 293 294 294 293 290 289 289 289 289 289 289 289 289 289 289 289 289 288 289 288 287 287 286
279 281 284 285 289 290 288 290 290 291 291 291 294 298 300 300 301 299 296 296 294 295 293 292 291 290 290 288 287 287 287 287 288 289 289 289 287 288 289 289 288 288 287
280 283 285 287 288 289 289 290 291 290 289 290 293 294 296 297 299 300 300 299 296 296 294 292 291 290 289 289 288 287 288 288 288 289 289 288 288 287 287 287 288 287 287
279 282 285 287 288 289 287 288 289 290 290 290 290 292 293 295 297 297 298 297 296 295 293 294 292 290 290 289 288 288 288 287 288 288 288 288 287 286 285 286 287 287 286
280 283 284 286 288 288 287 289 289 289 288 289 290 290 291 293 295 295 296 296 295 294 293 293 293 292 291 290 289 288 288 288 289 288 287 285 285 287 286 286 285 285 286
280 283 284 285 287 287 286 288 289 289 288 288 290 291 292 292 293 294 295 295 294 293 293 293 293 292 292 291 290 288 288 287 288 288 288 286 285 285 285 285 286 286 286
282 283 285 285 285 286 288 287 286 287 286 287 289 291 293 293 293 294 295 294 293 292 291 292 292 292 291 290 290 289 288 288 289 289 288 287 286 284 284 285 286 287 288
281 282 283 284 284 285 288 287 288 288 286 287 289 291 293 292 293 293 293 293 291 291 290 290 290 290 290 289 289 288 288 288 289 289 290 289 288 286 286 286 287 287 288
282 282 283 284 285 285 287 288 289 289 289 290 291 291 291 291 292 292 292 292 292 291 291 289 289 290 289 289 288 288 288 288 288 288 289 289 289 288 288 288 288 288 289
283 283 284 285 285 285 286 287 288 288 289 289 290 290 291 291 291 292 292 292 291 291 291 291 290 289 289 289 289 289 289 289 289 288 289 290 290 289 290 290 288 288 289
Height
5906 5905 5904 5903 5902 5901 5900 5899 5897 5896 5895 5894 5893 5892 5891 5890 5888 5887 5885 5884 5883 5882 5881 5879 5878 5877 5876 5874 5873 5872 5871 5870 5869 5869 5868 5868 5867 5867 5867 5867 5867 5867 5867
5906 5905 5904 5903 5901 5900 5899 5898 5897 5895 5894 5893 5892 5891 5890 5889 5887 5886 5884 5883 5882 5881 5880 5878 5877 5876 5875 5873 5872 5871 5870 5869 5868 5867 5866 5866 5866 5865 5865 5864 5864 5864 5864
5905 5904 5904 5902 5901 5899 5898 5897 5895 5894 5893 5892 5891 5890 5889 5888 5886 5885 5884 5882 5881 5880 5879 5877 5876 5874 5873 5872 5871 5870 5868 5867 5866 5865 5865 5864 5863 5863 5862 5862 5861 5861 5860
5905 5904 5903 5901 5899 5898 5897 5895 5894 5893 5892 5890 5889 5888 5887 5886 5885 5883 5882 5881 5879 5878 5877 5876 5874 5873 5872 5871 5869 5868 5867 5865 5864 5863 5862 5862 5861 5860 5860 5859 5858 5858 5857
5904 5903 5902 5900 5898 5897 5895 5894 5893 5892 5890 5889 5888 5887 5885 5884 5883 5881 5880 5878 5877 5876 5875 5874 5872 5871 5870 5868 5867 5866 5865 5863 5862 5861 5860 5859 5858 5857 5856 5855 5855 5854 5853
5902 5901 5900 5899 5897 5896 5894 5892 5891 5890 5888 5887 5886 5885 5883 5882 5880 5879 5877 5876 5875 5874 5872 5871 5870 5868 5867 5865 5864 5863 5862 5860 5859 5857 5856 5855 5854 5853 5852 5852 5851 5850 5849
5900 5899 5898 5896 5895 5894 5892 5891 5889 5888 5887 5885 5883 5882 5880 5879 5878 5876 5875 5873 5872 5870 5869 5868 5866 5865 5864 5862 5861 5859 5858 5856 5855 5854 5852 5851 5850 5849 5848 5847 5846 5845 5845
5898 5897 5896 5894 5893 5891 5890 5888 5886 5885 5884 5882 5880 5878 5877 5876 5875 5873 5872 5870 5868 5867 5865 5864 5863 5861 5860 5859 5857 5855 5854 5852 5850 5849 5848 5846 5845 5844 5843 5842 5841 5841 5840
5895 5894 5893 5891 5890 5889 5887 5885 5883 5881 5880 5878 5877 5875 5874 5872 5871 5869 5868 5866 5864 5863 5861 5860 5858 5857 5856 5854 5853 5851 5849 5848 5846 5845 5843 5842 5840 5839 5838 5837 5836 5835 5834
5892 5891 5890 5888 5887 5885 5884 5881 5879 5877 5876 5874 5873 5871 5870 5868 5866 5865 5863 5862 5860 5858 5856 5855 5854 5852 5851 5849 5848 5846 5844 5843 5841 5840 5838 5836 5835 5833 5832 5831 5830 5828 5828
5888 5887 5886 5884 5883 5881 5880 5878 5875 5873 5872 5870 5869 5867 5865 5863 5862 5860 5858 5856 5855 5853 5851 5850 5848 5847 5845 5843 5842 5840 5838 5837 5835 5834 5832 5830 5829 5827 5825 5824 5823 5822 5821
5884 5882 5881 5880 5878 5876 5875 5872 5871 5869 5867 5865 5864 5862 5860 5858 5856 5855 5853 5851 5850 5848 5846 5844 5842 5840 5839 5837 5835 5834 5832 5831 5829 5827 5825 5824 5822 5820 5819 5817 5816 5815 5813
5879 5877 5876 5875 5873 5871 5870 5868 5866 5864 5863 5861 5858 5856 5855 5853 5851 5849 5847 5845 5843 5841 5839 5838 5836 5834 5832 5830 5828 5827 5825 5824 5822 5820 5818 5816 5815 5813 5811 5810 5808 5807 5806
5873 5872 5871 5870 5868 5866 5865 5863 5861 5859 5858 5855 5853 5851 5849 5847 5845 5843 5841 5839 5837 5835 5833 5831 5829 5827 5825 5823 5821 5820 5818 5816 5815 5813 5811 5809 5807 5805 5804 5803 5801 5799 5798
5867 5867 5865 5864 5862 5861 5859 5857 5855 5853 5851 5850 5848 5846 5843 5841 5839 5837 5834 5832 5830 5828 5826 5824 5822 5820 5818 5816 5814 5812 5810 5809 5807 5805 5804 5802 5800 5798 5796 5795 5793 5792 5790
5861 5860 5858 5857 5856 5854 5852 5851 5849 5847 5845 5843 5842 5839 5837 5834 5832 5829 5827 5825 5823 5821 5818 5816 5814 5812 5810 5808 5806 5804 5802 5801 5799 5797 5796 5794 5792 5790 5788 5787 5785 5783 5782
5853 5852 5851 5850 5848 5847 5845 5843 5842 5840 5838 5836 5834 5832 5830 5827 5824 5821 5819 5817 5815 5813 5811 5809 5806 5804 5802 5800 5798 5796 5794 5792 5791 5789 5787 5785 5783 5781 5780 5778 5776 5775 5773
5846 5844 5842 5841 5840 5838 5837 5836 5834 5832 5830 5829 5827 5825 5823 5820 5817 5814 5812 5809 5808 5806 5803 5800 5798 5795 5793 5792 5790 5788 5786 5784 5782 5781 5779 5776 5774 5773 5771 5769 5768 5766 5764
5838 5836 5834 5833 5832 5830 5829 5828 5826 5824 5823 5821 5819 5817 5815 5813 5810 5807 5804 5802 5800 5797 5794 5791 5789 5787 5785 5783 5781 5779 5777 5775 5774 5772 5770 5767 5766 5764 5762 5761 5759 5757 5755
5830 5828 5827 5825 5824 5822 5821 5820 5818 5816 5814 5812 5811 5809 5807 5804 5802 5799 5796 5793 5791 5789 5786 5783 5781 5779 5776 5774 5772 5770 5768 5766 5765 5762 5760 5759 5757 5755 5753 5751 5750 5748 5746
5822 5820 5819 5817 5816 5814 5813 5811 5809 5808 5806 5804 5802 5800 5798 5796 5793 5790 5788 5785 5782 5780 5777 5775 5772 5770 5768 5766 5763 5761 5759 5757 5755 5753 5751 5749 5747 5745 5743 5741 5740 5738 5736
5813 5812 5810 5809 5807 5805 5804 5802 5801 5799 5797 5796 5794 5791 5789 5786 5784 5781 5778 5776 5773 5770 5768 5766 5763 5761 5759 5757 5754 5752 5749 5748 5746 5744 5741 5739 5737 5735 5733 5731 5729 5727 5725
5804 5803 5801 5800 5798 5797 5795 5794 5792 5790 5789 5787 5784 5782 5779 5777 5774 5771 5769 5766 5763 5761 5759 5756 5754 5752 5749 5747 5745 5742 5740 5738 5736 5734 5731 5729 5727 5725 5723 5721 5719 5717 5715
5795 5794 5792 5790 5789 5787 5785 5784 5782 5781 5779 5777 5775 5772 5770 5767 5765 5762 5759 5757 5754 5752 5749 5747 5744 5742 5740 5737 5735 5732 5730 5728 5725 5723 5721 5719 5716 5714 5712 5710 5708 5706 5705
5786 5784 5783 5781 5779 5778 5776 5775 5773 5771 5769 5767 5765 5762 5760 5757 5755 5752 5750 5747 5745 5742 5740 5737 5735 5732 5730 5727 5725 5722 5720 5718 5715 5713 5711 5709 5706 5704 5702 5700 5698 5696 5694
5777 5775 5773 5772 5770 5769 5767 5765 5763 5761 5759 5757 5755 5752 5750 5747 5745 5743 5740 5737 5735 5732 5730 5727 5724 5722 5719 5717 5714 5712 5710 5708 5705 5703 5702 5699 5697 5695 5693 5691 5689 5687 5685